Regional Weather Roundup
Issued by NWS

Home | Current Version | Previous Version | Graphics & Text | Print | Product List | Glossary On
Versions: 1 2 3 4 5 6 7 8 9 10 11 12 13 14 15 16 17 18 19 20 21 22 23 24 25 26 27 28 29 30 31 32 33 34 35 36 37 38 39 40 41 42 43 44 45 46 47 48 49 50
000
ASUS43 KLOT 291900
RWRIL

ILLINOIS REGIONAL WEATHER ROUNDUP
NATIONAL WEATHER SERVICE CHICAGO/ROMEOVILLE IL
100 PM CST THU JAN 29 2015

NOTE: "FAIR" INDICATES FEW OR NO CLOUDS BELOW 12,000 FEET WITH NO
SIGNIFICANT WEATHER AND/OR OBSTRUCTIONS TO VISIBILITY.

* THESE STATIONS ARE NOT UNDER NWS QUALITY CONTROL. THEY ALSO MAY NOT
  REPORT WEATHER SUCH AS PRECIPITATION OR FOG.

ILZ001-002-007-009-015-016-024-292000-
NORTHWEST ILLINOIS

CITY           SKY/WX    TMP DP  RH WIND       PRES   REMARKS
MOLINE         CLOUDY    36  31  82 NW18      30.10R WCI  26
STERLING*      CLOUDY    36  28  75 NW14G21   30.05R WCI  27
$$

ILZ003-004-008-010-011-017-018-292000-
NORTH CENTRAL ILLINOIS

CITY           SKY/WX    TMP DP  RH WIND       PRES   REMARKS
ROCKFORD       CLOUDY    34  26  72 NW16G28   30.02R WCI  24
$$

ILZ005-006-012>014-019>023-292000-
NORTHEAST ILLINOIS

CITY           SKY/WX    TMP DP  RH WIND       PRES   REMARKS
CHICAGO-OHARE  CLOUDY    33  26  75 NW16G25   29.95R WCI  23
CHICAGO-MIDWAY CLOUDY    35  27  72 NW18      29.96R WCI  24
AURORA         CLOUDY    34  27  75 NW20G25   29.99R HAZE    WCI  23
WAUKEGAN       CLOUDY    33  26  75 NW9G18    29.94R WCI  25
DUPAGE AIRPORT LGT RAIN  33  26  75 NW21G30   29.96R WCI  21
WHEELING       CLOUDY    33  25  72 NW20      29.97R WCI  21
NORTHERLY ISL    N/A     34  25  70 NW15        N/A  WCI  24
$$

LMZ740>746-292000-
SOUTHERN LAKE MICHIGAN

STATION/POSITION SKY/WX   TEMP    WIND        PRES    VSBY  WAVE
                          AIR SEA DIR/SP/G                  HT/PER
                          (F)     (DEG/KT/KT) (MB)    (MI)  (FT/S)
WAUKEGAN HARBOR            33     330/ 17/ 23   N/A
HARRISON CRIB              33     320/ 19/ 28   N/A
BURNHAM HARBOR             34     300/ 13/ 18   N/A
CALUMET HARBOR             34     300/ 14/ 19   N/A
MICHIGAN CITY              33     300/ 27/ 30   N/A
$$

ILZ025>027-034>036-040-047-049-050-058-095>099-292000-
WEST-CENTRAL ILLINOIS

CITY           SKY/WX    TMP DP  RH WIND       PRES   REMARKS
QUINCY         CLOUDY    38  30  73 NW24G31   30.17R WCI  27
$$

ILZ028>032-037-038-041>044-048-051>054-059>061-292000-
CENTRAL ILLINOIS

CITY           SKY/WX    TMP DP  RH WIND       PRES   REMARKS
DECATUR        CLOUDY    37  30  75 NW15G25   30.06R WCI  28
PEORIA         CLOUDY    38  30  73 NW14G29   30.08R WCI  30
SPRINGFIELD    CLOUDY    39  31  72 NW22G29   30.10R WCI  29
TAYLORVILLE    NOT AVBL
$$

ILZ033-039-045-046-055>057-062-063-292000-
EAST-CENTRAL ILLINOIS

CITY           SKY/WX    TMP DP  RH WIND       PRES   REMARKS
CHAMPAIGN      CLOUDY    35  29  78 NW21G28   30.02R WCI  24
MATTOON        CLOUDY    36  30  79 NW18G26   30.04R WCI  26
$$

ILZ079-100>102-292000-
SOUTHWEST ILLINOIS

CITY           SKY/WX    TMP DP  RH WIND       PRES   REMARKS
ALTON          CLOUDY    39  32  75 NW15G23   30.15R WCI  31
BELLEVILLE     CLOUDY    41  32  69 NW14      30.14R
CAHOKIA*       CLOUDY    42  32  67 NW18G26   30.16S
$$

ILZ064>066-069>071-074>076-080>082-084>086-088>090-092>094-292000-
SOUTH-CENTRAL ILLINOIS

CITY           SKY/WX    TMP DP  RH WIND       PRES   REMARKS
CARBONDALE     CLOUDY    41  31  67 NW14      30.15S
MARION         CLOUDY    41  32  70 NW15G25   30.16R
MT. VERNON     CLOUDY    39  30  70 W10       30.13R WCI  32
$$

ILZ067-068-072-073-078-083-087-091-292000-
SOUTHEAST ILLINOIS

CITY           SKY/WX    TMP DP  RH WIND       PRES   REMARKS
LAWRENCEVILLE  CLOUDY    39  33  79 W14G25    30.07R HAZE    WCI  31
$$

ABBREVIATIONS USED IN REMARKS
   TC - TEMPERATURE IN CELSIUS
  WCI - WIND CHILL INDEX
   HX - HEAT INDEX
  VSB - VISIBILITY
$$




USA.gov is the U.S. government's official web portal to all federal, state and local government web resources and services.